| time (UTC) | temp C | wind direction | speed KPH | gust KPH | rain 1hr cm | rain 24hr cm | rain mn cm | humidity % | barometer mb |
| 20260509022011 | 4 | 234 | 6.4 | 9.7 | 0.00 | 0.00 | 0.00 | 80 | 1013.2 |
| 20260509021528 | 4 | 178 | 3.2 | 8.0 | 0.00 | 0.00 | 0.00 | 80 | 1013.1 |
| 20260509021007 | 5 | 205 | 1.6 | 4.8 | 0.00 | 0.00 | 0.00 | 79 | 1013.1 |
| 20260509020504 | 5 | 257 | 1.6 | 6.4 | 0.00 | 0.00 | 0.00 | 79 | 1013.0 |
| 20260509020018 | 5 | 265 | 3.2 | 6.4 | 0.00 | 0.00 | 0.00 | 79 | 1012.9 |
| 20260509015506 | 5 | 255 | 3.2 | 4.8 | 0.00 | 0.00 | 0.00 | 79 | 1012.8 |
| 20260509015007 | 5 | 196 | 0.0 | 6.4 | 0.00 | 0.00 | 0.00 | 80 | 1012.8 |
| 20260509014526 | 5 | 205 | 3.2 | 6.4 | 0.00 | 0.00 | 0.00 | 79 | 1012.9 |
| 20260509014003 | 5 | 238 | 1.6 | 4.8 | 0.00 | 0.00 | 0.00 | 78 | 1012.8 |
| 20260509013503 | 6 | 238 | 1.6 | 4.8 | 0.00 | 0.00 | 0.00 | 77 | 1012.7 |
| 20260509013006 | 6 | 243 | 1.6 | 6.4 | 0.00 | 0.00 | 0.00 | 76 | 1012.7 |
| 20260509012503 | 6 | 257 | 3.2 | 6.4 | 0.00 | 0.00 | 0.00 | 75 | 1012.7 |
| 20260509012003 | 6 | 232 | 3.2 | 4.8 | 0.00 | 0.00 | 0.00 | 75 | 1012.5 |
| 20260509011512 | 6 | 51 | 1.6 | 4.8 | 0.00 | 0.00 | 0.00 | 73 | 1012.5 |
| 20260509011003 | 6 | 265 | 0.0 | 6.4 | 0.00 | 0.00 | 0.00 | 72 | 1012.5 |
| 20260509010506 | 7 | 265 | 3.2 | 8.0 | 0.00 | 0.00 | 0.00 | 71 | 1012.4 |
| 20260509010019 | 7 | 241 | 3.2 | 8.0 | 0.00 | 0.00 | 0.00 | 70 | 1012.2 |
| 20260509005505 | 7 | 234 | 3.2 | 6.4 | 0.00 | 0.00 | 0.00 | 69 | 1012.2 |
| 20260509005007 | 7 | 232 | 3.2 | 6.4 | 0.00 | 0.00 | 0.00 | 67 | 1012.1 |
| 20260509004520 | 8 | 265 | 3.2 | 6.4 | 0.00 | 0.00 | 0.00 | 66 | 1012.1 |
| 20260509004007 | 8 | 205 | 1.6 | 4.8 | 0.00 | 0.00 | 0.00 | 65 | 1012.0 |
| 20260509003512 | 8 | 319 | 1.6 | 6.4 | 0.00 | 0.00 | 0.00 | 64 | 1011.9 |
| 20260509003004 | 8 | 330 | 3.2 | 6.4 | 0.00 | 0.00 | 0.00 | 62 | 1011.7 |
| 20260509002501 | 8 | 309 | 3.2 | 6.4 | 0.00 | 0.00 | 0.00 | 63 | 1011.6 |
| 20260509002004 | 9 | 325 | 0.0 | 4.8 | 0.00 | 0.00 | 0.00 | 64 | 1011.6 |
| 20260509001511 | 9 | 232 | 0.0 | 4.8 | 0.00 | 0.00 | 0.00 | 63 | 1011.6 |
| 20260509001002 | 9 | 265 | 0.0 | 4.8 | 0.00 | 0.00 | 0.00 | 61 | 1011.6 |
| 20260509000504 | 10 | 51 | 0.0 | 4.8 | 0.00 | 0.00 | 0.00 | 59 | 1011.6 |
| 20260509000013 | 10 | 298 | 0.0 | 9.7 | 0.00 | 0.00 | 0.00 | 58 | 1011.5 |
| 20260508235507 | 10 | 238 | 1.6 | 9.7 | 0.00 | 0.00 | 0.00 | 61 | 1011.4 |
| 20260508235007 | 10 | 63 | 3.2 | 6.4 | 0.00 | 0.00 | 0.00 | 57 | 1011.3 |
| 20260508234523 | 10 | 51 | 0.0 | 4.8 | 0.00 | 0.00 | 0.00 | 56 | 1011.3 |
| 20260508234010 | 10 | 34 | 3.2 | 6.4 | 0.00 | 0.00 | 0.00 | 54 | 1011.2 |
| 20260508233506 | 10 | 282 | 3.2 | 6.4 | 0.00 | 0.00 | 0.00 | 56 | 1011.1 |
| 20260508233024 | 11 | 168 | 1.6 | 9.7 | 0.00 | 0.00 | 0.00 | 54 | 1011.1 |
| 20260508232509 | 11 | 17 | 1.6 | 9.7 | 0.00 | 0.00 | 0.00 | 56 | 1011.1 |
| 20260508232007 | 11 | 24 | 1.6 | 12.9 | 0.00 | 0.00 | 0.00 | 58 | 1011.0 |
| 20260508231526 | 11 | 170 | 3.2 | 12.9 | 0.00 | 0.00 | 0.00 | 56 | 1011.0 |
| 20260508231009 | 11 | 225 | 3.2 | 16.1 | 0.00 | 0.00 | 0.00 | 57 | 1010.9 |
| 20260508230504 | 11 | 51 | 3.2 | 16.1 | 0.00 | 0.00 | 0.00 | 55 | 1011.0 |
| 20260508230011 | 10 | 311 | 3.2 | 14.5 | 0.00 | 0.00 | 0.00 | 57 | 1010.9 |
| 20260508225508 | 10 | 291 | 1.6 | 14.5 | 0.00 | 0.00 | 0.00 | 59 | 1010.9 |
| 20260508225005 | 10 | 30 | 6.4 | 17.7 | 0.00 | 0.00 | 0.00 | 58 | 1010.8 |
| 20260508224514 | 10 | 340 | 8.0 | 19.3 | 0.00 | 0.00 | 0.00 | 57 | 1010.9 |
| 20260508224006 | 10 | 339 | 1.6 | 19.3 | 0.00 | 0.00 | 0.00 | 59 | 1010.8 |
| 20260508223512 | 10 | 340 | 4.8 | 20.9 | 0.00 | 0.00 | 0.00 | 58 | 1010.8 |
| 20260508223020 | 10 | 22 | 6.4 | 20.9 | 0.00 | 0.00 | 0.00 | 58 | 1010.8 |
| 20260508222507 | 10 | 26 | 6.4 | 14.5 | 0.00 | 0.00 | 0.00 | 57 | 1010.7 |
| 20260508222010 | 11 | 13 | 6.4 | 17.7 | 0.00 | 0.00 | 0.00 | 57 | 1010.6 |
| 20260508221523 | 11 | 13 | 9.7 | 17.7 | 0.00 | 0.00 | 0.00 | 55 | 1010.6 |
| 20260508221009 | 11 | 319 | 9.7 | 24.1 | 0.00 | 0.00 | 0.00 | 57 | 1010.7 |
| 20260508220509 | 11 | 41 | 11.3 | 24.1 | 0.00 | 0.00 | 0.00 | 57 | 1010.6 |
| 20260508220025 | 11 | 330 | 9.7 | 19.3 | 0.00 | 0.00 | 0.00 | 57 | 1010.6 |
| 20260508215510 | 11 | 28 | 8.0 | 20.9 | 0.00 | 0.00 | 0.00 | 60 | 1010.6 |
| 20260508215007 | 11 | 31 | 8.0 | 24.1 | 0.00 | 0.00 | 0.00 | 62 | 1010.7 |
| 20260508214512 | 11 | 45 | 11.3 | 24.1 | 0.00 | 0.00 | 0.00 | 61 | 1010.6 |
| 20260508214005 | 10 | 38 | 11.3 | 19.3 | 0.00 | 0.00 | 0.00 | 62 | 1010.6 |
| 20260508213511 | 11 | 42 | 11.3 | 29.0 | 0.00 | 0.00 | 0.00 | 63 | 1010.6 |
| 20260508213019 | 10 | 50 | 11.3 | 29.0 | 0.00 | 0.00 | 0.00 | 59 | 1010.6 |
| 20260508212509 | 10 | 336 | 16.1 | 29.0 | 0.00 | 0.00 | 0.00 | 58 | 1010.6 |
| 20260508212010 | 11 | 344 | 9.7 | 37.0 | 0.00 | 0.00 | 0.00 | 56 | 1010.5 |
| 20260508211527 | 12 | 324 | 19.3 | 37.0 | 0.00 | 0.00 | 0.00 | 49 | 1010.3 |
| 20260508211009 | 12 | 333 | 16.1 | 29.0 | 0.00 | 0.00 | 0.00 | 45 | 1010.2 |
| 20260508210509 | 12 | 24 | 3.2 | 16.1 | 0.00 | 0.00 | 0.00 | 43 | 1009.9 |
| 20260508210027 | 13 | 205 | 8.0 | 22.5 | 0.00 | 0.00 | 0.00 | 41 | 1009.9 |
| 20260508205510 | 13 | 247 | 4.8 | 25.7 | 0.00 | 0.00 | 0.00 | 40 | 1009.9 |
| 20260508205011 | 13 | 277 | 11.3 | 25.7 | 0.00 | 0.00 | 0.00 | 39 | 1009.7 |
| 20260508204530 | 13 | 221 | 12.9 | 33.8 | 0.00 | 0.00 | 0.00 | 43 | 1009.6 |
| 20260508204010 | 13 | 334 | 6.4 | 33.8 | 0.00 | 0.00 | 0.00 | 40 | 1009.6 |
| 20260508203505 | 13 | 223 | 12.9 | 32.2 | 0.00 | 0.00 | 0.00 | 40 | 1009.6 |
| 20260508203017 | 13 | 240 | 6.4 | 29.0 | 0.00 | 0.00 | 0.00 | 42 | 1009.7 |
| 20260508202505 | 13 | 254 | 12.9 | 29.0 | 0.00 | 0.00 | 0.00 | 40 | 1009.8 |
| 20260508202006 | 14 | 257 | 12.9 | 27.4 | 0.00 | 0.00 | 0.00 | 40 | 1009.7 |
| 20260508201518 | 14 | 139 | 4.8 | 27.4 | 0.00 | 0.00 | 0.00 | 39 | 1009.7 |
| 20260508201009 | 14 | 234 | 6.4 | 22.5 | 0.00 | 0.00 | 0.00 | 45 | 1009.6 |
| 20260508200510 | 13 | 254 | 8.0 | 22.5 | 0.00 | 0.00 | 0.00 | 46 | 1009.6 |
| 20260508200030 | 13 | 213 | 8.0 | 25.7 | 0.00 | 0.00 | 0.00 | 43 | 1009.5 |
| 20260508195509 | 13 | 344 | 9.7 | 27.4 | 0.00 | 0.00 | 0.00 | 41 | 1009.7 |
| 20260508195011 | 13 | 347 | 11.3 | 27.4 | 0.00 | 0.00 | 0.00 | 41 | 1009.7 |
| 20260508194527 | 13 | 237 | 8.0 | 25.7 | 0.00 | 0.00 | 0.00 | 45 | 1009.9 |
| 20260508194003 | 13 | 280 | 8.0 | 25.7 | 0.00 | 0.00 | 0.00 | 45 | 1009.8 |
| 20260508193503 | 13 | 270 | 11.3 | 32.2 | 0.00 | 0.00 | 0.00 | 45 | 1009.8 |
| 20260508193028 | 14 | 250 | 16.1 | 32.2 | 0.00 | 0.00 | 0.00 | 41 | 1009.8 |
| 20260508192509 | 14 | 234 | 8.0 | 30.6 | 0.00 | 0.00 | 0.00 | 49 | 1009.7 |
| 20260508192010 | 13 | 277 | 17.7 | 30.6 | 0.00 | 0.00 | 0.00 | 44 | 1009.8 |
| 20260508191517 | 13 | 202 | 17.7 | 30.6 | 0.00 | 0.00 | 0.00 | 40 | 1009.7 |
| 20260508191008 | 14 | 236 | 16.1 | 33.8 | 0.00 | 0.00 | 0.00 | 40 | 1009.7 |
| 20260508190506 | 14 | 284 | 12.9 | 33.8 | 0.00 | 0.00 | 0.00 | 41 | 1009.9 |
| 20260508190004 | 15 | 282 | 9.7 | 40.2 | 0.00 | 0.00 | 0.00 | 39 | 1009.7 |
| 20260508185503 | 14 | 309 | 8.0 | 40.2 | 0.00 | 0.00 | 0.00 | 43 | 1009.7 |
| 20260508185003 | 13 | 229 | 8.0 | 25.7 | 0.00 | 0.00 | 0.00 | 46 | 1009.8 |
| 20260508184504 | 13 | 227 | 16.1 | 25.7 | 0.00 | 0.00 | 0.00 | 42 | 1009.8 |
| 20260508184003 | 13 | 225 | 11.3 | 25.7 | 0.00 | 0.00 | 0.00 | 42 | 1009.9 |
| 20260508183503 | 13 | 273 | 11.3 | 27.4 | 0.00 | 0.00 | 0.00 | 40 | 1009.9 |
| 20260508183026 | 13 | 344 | 8.0 | 27.4 | 0.00 | 0.00 | 0.00 | 41 | 1009.8 |
| 20260508182503 | 13 | 225 | 6.4 | 22.5 | 0.00 | 0.00 | 0.00 | 43 | 1009.9 |
| 20260508182003 | 13 | 219 | 16.1 | 22.5 | 0.00 | 0.00 | 0.00 | 43 | 1009.9 |
| 20260508181516 | 13 | 269 | 6.4 | 29.0 | 0.00 | 0.00 | 0.00 | 41 | 1009.9 |
| 20260508181009 | 12 | 314 | 6.4 | 29.0 | 0.00 | 0.00 | 0.00 | 43 | 1009.9 |
| 20260508180507 | 12 | 344 | 4.8 | 45.1 | 0.00 | 0.00 | 0.00 | 42 | 1010.0 |
| 20260508180023 | 13 | 273 | 11.3 | 45.1 | 0.00 | 0.00 | 0.00 | 42 | 1010.0 |
| 20260508175507 | 13 | 211 | 12.9 | 30.6 | 0.00 | 0.00 | 0.00 | 44 | 1010.0 |
| 20260508175012 | 13 | 265 | 9.7 | 30.6 | 0.00 | 0.00 | 0.00 | 44 | 1010.0 |
| 20260508174510 | 12 | 231 | 6.4 | 30.6 | 0.00 | 0.00 | 0.00 | 44 | 1009.9 |
| 20260508174003 | 13 | 242 | 14.5 | 37.0 | 0.00 | 0.00 | 0.00 | 39 | 1009.8 |
| 20260508173504 | 13 | 236 | 12.9 | 37.0 | 0.00 | 0.00 | 0.00 | 42 | 1010.0 |
| 20260508173011 | 13 | 291 | 16.1 | 37.0 | 0.00 | 0.00 | 0.00 | 44 | 1009.9 |
| 20260508172506 | 13 | 248 | 4.8 | 27.4 | 0.00 | 0.00 | 0.00 | 38 | 1010.1 |
| 20260508172003 | 13 | 329 | 8.0 | 27.4 | 0.00 | 0.00 | 0.00 | 43 | 1010.0 |
| 20260508171511 | 12 | 17 | 11.3 | 25.7 | 0.00 | 0.00 | 0.00 | 41 | 1010.1 |
| 20260508171004 | 12 | 317 | 9.7 | 25.7 | 0.00 | 0.00 | 0.00 | 41 | 1010.1 |
| 20260508170504 | 12 | 232 | 14.5 | 25.7 | 0.00 | 0.00 | 0.00 | 40 | 1010.0 |
| 20260508170018 | 12 | 250 | 8.0 | 22.5 | 0.00 | 0.00 | 0.00 | 45 | 1010.0 |
| 20260508165506 | 12 | 269 | 8.0 | 19.3 | 0.00 | 0.00 | 0.00 | 39 | 1010.0 |
| 20260508165009 | 13 | 86 | 6.4 | 24.1 | 0.00 | 0.00 | 0.00 | 41 | 1010.0 |
| 20260508164522 | 12 | 215 | 11.3 | 24.1 | 0.00 | 0.00 | 0.00 | 44 | 1009.9 |
| 20260508164007 | 12 | 234 | 6.4 | 22.5 | 0.00 | 0.00 | 0.00 | 41 | 1009.9 |
| 20260508163507 | 12 | 310 | 4.8 | 17.7 | 0.00 | 0.00 | 0.00 | 42 | 1010.1 |
| 20260508163039 | 12 | 305 | 6.4 | 17.7 | 0.00 | 0.00 | 0.00 | 40 | 1010.1 |
| 20260508162504 | 12 | 312 | 4.8 | 17.7 | 0.00 | 0.00 | 0.00 | 41 | 1010.1 |
| 20260508162006 | 12 | 288 | 4.8 | 16.1 | 0.00 | 0.00 | 0.00 | 40 | 1010.1 |
| 20260508161512 | 12 | 202 | 6.4 | 16.1 | 0.00 | 0.00 | 0.00 | 39 | 1010.0 |
| 20260508161005 | 12 | 309 | 6.4 | 22.5 | 0.00 | 0.00 | 0.00 | 39 | 1010.1 |
| 20260508160504 | 12 | 51 | 8.0 | 27.4 | 0.00 | 0.00 | 0.00 | 42 | 1010.1 |
| 20260508160016 | 12 | 247 | 8.0 | 27.4 | 0.00 | 0.00 | 0.00 | 40 | 1010.1 |
| 20260508155505 | 12 | 295 | 9.7 | 19.3 | 0.00 | 0.00 | 0.00 | 37 | 1010.1 |
| 20260508155011 | 12 | 20 | 4.8 | 12.9 | 0.00 | 0.00 | 0.00 | 47 | 1010.1 |
| 20260508154519 | 12 | 178 | 4.8 | 22.5 | 0.00 | 0.00 | 0.00 | 40 | 1010.1 |
| 20260508154015 | 12 | 277 | 12.9 | 22.5 | 0.00 | 0.00 | 0.00 | 40 | 1010.2 |
| 20260508153509 | 12 | 225 | 6.4 | 24.1 | 0.00 | 0.00 | 0.00 | 45 | 1010.2 |
| 20260508153029 | 12 | 265 | 9.7 | 25.7 | 0.00 | 0.00 | 0.00 | 37 | 1010.1 |
| 20260508152508 | 13 | 245 | 11.3 | 25.7 | 0.00 | 0.00 | 0.00 | 44 | 1009.9 |
| 20260508152009 | 13 | 229 | 9.7 | 33.8 | 0.00 | 0.00 | 0.00 | 40 | 1010.0 |
| 20260508151531 | 13 | 234 | 16.1 | 33.8 | 0.00 | 0.00 | 0.00 | 37 | 1009.9 |
| 20260508151006 | 12 | 238 | 11.3 | 24.1 | 0.00 | 0.00 | 0.00 | 41 | 1009.8 |
| 20260508150503 | 12 | 153 | 3.2 | 24.1 | 0.00 | 0.00 | 0.00 | 43 | 1009.8 |
| 20260508150012 | 12 | 281 | 4.8 | 24.1 | 0.00 | 0.00 | 0.00 | 43 | 1009.9 |
| 20260508145507 | 12 | 267 | 8.0 | 27.4 | 0.00 | 0.00 | 0.00 | 34 | 1010.0 |
| 20260508145009 | 13 | 321 | 16.1 | 27.4 | 0.00 | 0.00 | 0.00 | 42 | 1009.9 |
| 20260508144519 | 12 | 279 | 12.9 | 24.1 | 0.00 | 0.00 | 0.00 | 41 | 1009.9 |
| 20260508144008 | 12 | 280 | 12.9 | 30.6 | 0.00 | 0.00 | 0.00 | 40 | 1010.1 |
| 20260508143510 | 12 | 225 | 11.3 | 30.6 | 0.00 | 0.00 | 0.00 | 39 | 1010.1 |
| 20260508143019 | 12 | 218 | 14.5 | 27.4 | 0.00 | 0.00 | 0.00 | 42 | 1010.0 |
| 20260508142506 | 12 | 248 | 9.7 | 22.5 | 0.00 | 0.00 | 0.00 | 46 | 1010.0 |
| 20260508142009 | 12 | 244 | 6.4 | 27.4 | 0.00 | 0.00 | 0.00 | 46 | 1010.0 |
| 20260508141526 | 12 | 282 | 9.7 | 27.4 | 0.00 | 0.00 | 0.00 | 42 | 1010.1 |
| 20260508141010 | 11 | 340 | 6.4 | 22.5 | 0.00 | 0.00 | 0.00 | 45 | 1010.3 |
| 20260508140516 | 11 | 257 | 6.4 | 27.4 | 0.00 | 0.00 | 0.00 | 46 | 1010.2 |
| 20260508140030 | 11 | 270 | 3.2 | 27.4 | 0.00 | 0.00 | 0.00 | 46 | 1010.3 |
| 20260508135512 | 11 | 225 | 6.4 | 19.3 | 0.00 | 0.00 | 0.00 | 50 | 1010.4 |
| 20260508135007 | 11 | 212 | 8.0 | 14.5 | 0.00 | 0.00 | 0.00 | 53 | 1010.5 |
| 20260508134523 | 11 | 293 | 3.2 | 12.9 | 0.00 | 0.00 | 0.00 | 50 | 1010.6 |
| 20260508134005 | 10 | 76 | 4.8 | 14.5 | 0.00 | 0.00 | 0.00 | 51 | 1010.7 |
| 20260508133509 | 10 | 265 | 4.8 | 16.1 | 0.00 | 0.00 | 0.00 | 52 | 1010.8 |
| 20260508133030 | 10 | 325 | 3.2 | 16.1 | 0.00 | 0.00 | 0.00 | 54 | 1010.9 |
| 20260508132507 | 9 | 298 | 1.6 | 14.5 | 0.00 | 0.00 | 0.00 | 60 | 1010.9 |
| 20260508132007 | 10 | 334 | 4.8 | 14.5 | 0.00 | 0.00 | 0.00 | 53 | 1010.9 |
| 20260508131523 | 10 | 293 | 4.8 | 17.7 | 0.00 | 0.00 | 0.00 | 64 | 1010.9 |
| 20260508131007 | 10 | 328 | 6.4 | 17.7 | 0.00 | 0.00 | 0.00 | 55 | 1011.0 |
| 20260508130511 | 10 | 340 | 3.2 | 20.9 | 0.00 | 0.00 | 0.00 | 58 | 1010.9 |
| 20260508130024 | 10 | 261 | 8.0 | 20.9 | 0.00 | 0.00 | 0.00 | 55 | 1010.9 |
| 20260508125511 | 9 | 51 | 1.6 | 14.5 | 0.00 | 0.00 | 0.00 | 60 | 1011.0 |
| 20260508125011 | 9 | 259 | 3.2 | 16.1 | 0.00 | 0.00 | 0.00 | 57 | 1011.0 |
| 20260508124528 | 8 | 265 | 6.4 | 16.1 | 0.00 | 0.00 | 0.00 | 60 | 1011.0 |
| 20260508124012 | 8 | 244 | 6.4 | 16.1 | 0.00 | 0.00 | 0.00 | 64 | 1011.1 |
| 20260508123503 | 7 | 225 | 3.2 | 12.9 | 0.00 | 0.00 | 0.00 | 64 | 1011.1 |
| 20260508123016 | 6 | 221 | 4.8 | 17.7 | 0.00 | 0.00 | 0.00 | 67 | 1011.1 |
| 20260508122506 | 6 | 175 | 3.2 | 17.7 | 0.00 | 0.00 | 0.00 | 66 | 1011.1 |
| 20260508122011 | 6 | 212 | 4.8 | 16.1 | 0.00 | 0.00 | 0.00 | 69 | 1011.1 |
| 20260508121520 | 6 | 167 | 8.0 | 14.5 | 0.00 | 0.00 | 0.00 | 71 | 1011.0 |
| 20260508121012 | 6 | 194 | 6.4 | 20.9 | 0.00 | 0.00 | 0.00 | 74 | 1011.0 |
| 20260508120508 | 6 | 198 | 11.3 | 20.9 | 0.00 | 0.00 | 0.00 | 73 | 1010.9 |
| 20260508120024 | 5 | 183 | 8.0 | 16.1 | 0.00 | 0.00 | 0.00 | 77 | 1011.0 |
| 20260508115515 | 5 | 153 | 8.0 | 12.9 | 0.00 | 0.00 | 0.00 | 77 | 1011.1 |
| 20260508115011 | 5 | 201 | 8.0 | 16.1 | 0.00 | 0.00 | 0.00 | 79 | 1011.0 |
| 20260508114524 | 5 | 190 | 6.4 | 16.1 | 0.00 | 0.00 | 0.00 | 79 | 1011.0 |
| 20260508114014 | 5 | 196 | 8.0 | 16.1 | 0.00 | 0.00 | 0.00 | 78 | 1011.0 |
| 20260508113510 | 5 | 200 | 9.7 | 16.1 | 0.00 | 0.00 | 0.00 | 78 | 1011.0 |
| 20260508113026 | 5 | 212 | 6.4 | 12.9 | 0.00 | 0.00 | 0.00 | 80 | 1011.0 |
| 20260508112512 | 5 | 178 | 6.4 | 12.9 | 0.00 | 0.00 | 0.00 | 82 | 1010.9 |
| 20260508112009 | 5 | 157 | 8.0 | 12.9 | 0.00 | 0.00 | 0.00 | 84 | 1010.8 |
| 20260508111520 | 4 | 163 | 8.0 | 11.3 | 0.00 | 0.00 | 0.00 | 86 | 1010.8 |
| 20260508111011 | 3 | 175 | 6.4 | 12.9 | 0.00 | 0.00 | 0.00 | 87 | 1010.7 |
| 20260508110507 | 3 | 182 | 6.4 | 14.5 | 0.00 | 0.00 | 0.00 | 89 | 1010.7 |
| 20260508110029 | 2 | 236 | 4.8 | 14.5 | 0.00 | 0.00 | 0.00 | 89 | 1010.7 |
| 20260508105510 | 2 | 183 | 8.0 | 12.9 | 0.00 | 0.00 | 0.00 | 90 | 1010.6 |
| 20260508105009 | 2 | 202 | 8.0 | 12.9 | 0.00 | 0.00 | 0.00 | 90 | 1010.7 |
| 20260508104524 | 2 | 186 | 6.4 | 11.3 | 0.00 | 0.00 | 0.00 | 90 | 1010.7 |
| 20260508104002 | 2 | 212 | 3.2 | 11.3 | 0.00 | 0.00 | 0.00 | 90 | 1010.7 |
| 20260508103503 | 2 | 207 | 6.4 | 11.3 | 0.00 | 0.00 | 0.00 | 91 | 1010.7 |
| 20260508103003 | 1 | 221 | 6.4 | 11.3 | 0.00 | 0.00 | 0.00 | 91 | 1010.6 |
| 20260508102501 | 1 | 196 | 4.8 | 9.7 | 0.00 | 0.00 | 0.00 | 91 | 1010.4 |
| 20260508102003 | 1 | 207 | 4.8 | 8.0 | 0.00 | 0.00 | 0.00 | 91 | 1010.4 |
| 20260508101513 | 1 | 212 | 1.6 | 8.0 | 0.00 | 0.00 | 0.00 | 91 | 1010.3 |
| 20260508101002 | 1 | 205 | 3.2 | 8.0 | 0.00 | 0.00 | 0.00 | 91 | 1010.3 |
| 20260508100502 | 1 | 184 | 4.8 | 11.3 | 0.00 | 0.00 | 0.00 | 91 | 1010.3 |
| 20260508100005 | 1 | 224 | 6.4 | 14.5 | 0.00 | 0.00 | 0.00 | 91 | 1010.3 |
| 20260508095503 | 1 | 210 | 8.0 | 14.5 | 0.00 | 0.00 | 0.00 | 91 | 1010.4 |
| 20260508095003 | 1 | 200 | 8.0 | 14.5 | 0.00 | 0.00 | 0.00 | 91 | 1010.3 |
| 20260508094502 | 0 | 216 | 6.4 | 9.7 | 0.00 | 0.00 | 0.00 | 91 | 1010.3 |
| 20260508094002 | 0 | 221 | 4.8 | 8.0 | 0.00 | 0.00 | 0.00 | 91 | 1010.3 |
| 20260508093502 | 0 | 218 | 3.2 | 8.0 | 0.00 | 0.00 | 0.00 | 91 | 1010.3 |
| 20260508093013 | 0 | 243 | 4.8 | 8.0 | 0.00 | 0.00 | 0.00 | 91 | 1010.2 |
| 20260508092501 | 0 | 246 | 3.2 | 8.0 | 0.00 | 0.00 | 0.00 | 91 | 1010.3 |
| 20260508092002 | 0 | 247 | 1.6 | 4.8 | 0.00 | 0.00 | 0.00 | 91 | 1010.2 |
| 20260508091503 | 0 | 265 | 1.6 | 4.8 | 0.00 | 0.00 | 0.00 | 91 | 1010.2 |
| 20260508091006 | 1 | 232 | 3.2 | 4.8 | 0.00 | 0.00 | 0.00 | 91 | 1010.2 |
| 20260508090504 | 1 | 238 | 1.6 | 4.8 | 0.00 | 0.00 | 0.00 | 91 | 1010.2 |
| 20260508090011 | 0 | 238 | 3.2 | 4.8 | 0.00 | 0.00 | 0.00 | 91 | 1010.2 |
| 20260508085503 | 0 | 215 | 3.2 | 4.8 | 0.00 | 0.00 | 0.00 | 91 | 1010.2 |
| 20260508085003 | 0 | 254 | 3.2 | 4.8 | 0.00 | 0.00 | 0.00 | 91 | 1010.1 |
| 20260508084504 | 0 | 247 | 1.6 | 3.2 | 0.00 | 0.00 | 0.00 | 91 | 1010.0 |
| 20260508084003 | 0 | 137 | 0.0 | 1.6 | 0.00 | 0.00 | 0.00 | 91 | 1009.9 |
| 20260508083502 | 0 | 146 | 0.0 | 1.6 | 0.00 | 0.00 | 0.00 | 91 | 1009.9 |
| 20260508083002 | 0 | 51 | 0.0 | 3.2 | 0.00 | 0.00 | 0.00 | 91 | 1009.8 |
| 20260508082502 | 0 | 178 | 0.0 | 3.2 | 0.00 | 0.00 | 0.00 | 91 | 1009.7 |
| 20260508082002 | 1 | 221 | 0.0 | 4.8 | 0.00 | 0.00 | 0.00 | 91 | 1009.8 |
| 20260508081504 | 1 | 254 | 1.6 | 4.8 | 0.00 | 0.00 | 0.00 | 91 | 1009.8 |
| 20260508081003 | 0 | 265 | 1.6 | 4.8 | 0.00 | 0.00 | 0.00 | 91 | 1009.8 |
| 20260508080505 | 0 | 265 | 1.6 | 4.8 | 0.00 | 0.00 | 0.00 | 91 | 1009.9 |
| 20260508080004 | 0 | 232 | 1.6 | 4.8 | 0.00 | 0.00 | 0.00 | 91 | 1009.9 |
| 20260508075507 | 0 | 232 | 1.6 | 4.8 | 0.00 | 0.00 | 0.00 | 91 | 1010.0 |
| 20260508075003 | 0 | 265 | 0.0 | 6.4 | 0.00 | 0.00 | 0.00 | 91 | 1009.8 |
| 20260508074512 | 0 | 221 | 3.2 | 6.4 | 0.00 | 0.00 | 0.00 | 91 | 1009.7 |
| 20260508074003 | 0 | 212 | 3.2 | 4.8 | 0.00 | 0.00 | 0.00 | 90 | 1009.7 |
| 20260508073507 | 0 | 196 | 1.6 | 4.8 | 0.00 | 0.00 | 0.00 | 91 | 1009.6 |
| 20260508073006 | 0 | 234 | 1.6 | 4.8 | 0.00 | 0.00 | 0.00 | 91 | 1009.5 |
| 20260508072502 | 0 | 254 | 1.6 | 4.8 | 0.00 | 0.00 | 0.00 | 90 | 1009.4 |
| 20260508072003 | 0 | 291 | 1.6 | 4.8 | 0.00 | 0.00 | 0.00 | 90 | 1009.3 |
| 20260508071505 | 0 | 265 | 1.6 | 4.8 | 0.00 | 0.00 | 0.00 | 90 | 1009.2 |
| 20260508071002 | 0 | 247 | 1.6 | 3.2 | 0.00 | 0.00 | 0.00 | 90 | 1009.2 |
| 20260508070503 | 0 | 221 | 0.0 | 3.2 | 0.00 | 0.00 | 0.00 | 90 | 1009.2 |
| 20260508070005 | 0 | 93 | 0.0 | 3.2 | 0.00 | 0.00 | 0.00 | 90 | 1009.2 |
| 20260508065503 | 1 | 265 | 0.0 | 3.2 | 0.00 | 0.00 | 0.00 | 89 | 1009.3 |
| 20260508065004 | 0 | 221 | 0.0 | 3.2 | 0.00 | 0.00 | 0.00 | 89 | 1009.2 |
| 20260508064511 | 0 | 9 | 1.6 | 3.2 | 0.00 | 0.00 | 0.00 | 89 | 1009.1 |
| 20260508064003 | 1 | 334 | 1.6 | 3.2 | 0.00 | 0.00 | 0.00 | 89 | 1009.1 |
| 20260508063506 | 1 | 265 | 1.6 | 3.2 | 0.00 | 0.00 | 0.00 | 89 | 1009.2 |
| 20260508063005 | 1 | 309 | 0.0 | 1.6 | 0.00 | 0.00 | 0.00 | 89 | 1009.1 |
| 20260508062503 | 1 | 205 | 0.0 | 3.2 | 0.00 | 0.00 | 0.00 | 89 | 1009.2 |
| 20260508062003 | 1 | 178 | 0.0 | 3.2 | 0.00 | 0.00 | 0.00 | 89 | 1009.2 |
| 20260508061507 | 1 | 265 | 1.6 | 3.2 | 0.00 | 0.00 | 0.00 | 88 | 1009.2 |
| 20260508061006 | 1 | 51 | 1.6 | 4.8 | 0.00 | 0.00 | 0.00 | 88 | 1009.2 |
| 20260508060502 | 1 | 291 | 1.6 | 4.8 | 0.00 | 0.00 | 0.00 | 88 | 1009.2 |
| 20260508060004 | 1 | 236 | 3.2 | 4.8 | 0.00 | 0.00 | 0.00 | 88 | 1009.2 |
| 20260508055504 | 1 | 200 | 1.6 | 4.8 | 0.00 | 0.00 | 0.00 | 88 | 1009.3 |
| 20260508055006 | 1 | 217 | 3.2 | 4.8 | 0.00 | 0.00 | 0.00 | 87 | 1009.3 |
| 20260508054509 | 1 | 234 | 3.2 | 4.8 | 0.00 | 0.00 | 0.00 | 87 | 1009.3 |
| 20260508054003 | 2 | 221 | 1.6 | 4.8 | 0.00 | 0.00 | 0.00 | 87 | 1009.3 |
| 20260508053504 | 2 | 247 | 1.6 | 4.8 | 0.00 | 0.00 | 0.00 | 87 | 1009.3 |
| 20260508053007 | 2 | 255 | 3.2 | 4.8 | 0.00 | 0.00 | 0.00 | 87 | 1009.2 |
| 20260508052504 | 2 | 265 | 1.6 | 3.2 | 0.00 | 0.00 | 0.00 | 87 | 1009.3 |
| 20260508052004 | 2 | 238 | 1.6 | 3.2 | 0.00 | 0.00 | 0.00 | 87 | 1009.3 |
| 20260508051509 | 2 | 232 | 0.0 | 1.6 | 0.00 | 0.00 | 0.00 | 86 | 1009.4 |
| 20260508051003 | 2 | 221 | 0.0 | 1.6 | 0.00 | 0.00 | 0.00 | 86 | 1009.4 |
| 20260508050503 | 2 | 93 | 0.0 | 3.2 | 0.00 | 0.00 | 0.00 | 86 | 1009.5 |
| 20260508050006 | 2 | 309 | 0.0 | 3.2 | 0.00 | 0.00 | 0.00 | 86 | 1009.6 |
| 20260508045502 | 2 | 291 | 1.6 | 3.2 | 0.00 | 0.00 | 0.00 | 86 | 1009.5 |
| 20260508045002 | 2 | 9 | 0.0 | 3.2 | 0.00 | 0.00 | 0.00 | 85 | 1009.5 |
| 20260508044514 | 2 | 309 | 0.0 | 4.8 | 0.00 | 0.00 | 0.00 | 85 | 1009.6 |
| 20260508044004 | 2 | 238 | 1.6 | 6.4 | 0.00 | 0.00 | 0.00 | 85 | 1009.6 |
| 20260508043505 | 2 | 238 | 3.2 | 6.4 | 0.00 | 0.00 | 0.00 | 85 | 1009.7 |
| 20260508043007 | 2 | 234 | 4.8 | 6.4 | 0.00 | 0.00 | 0.00 | 85 | 1009.7 |
| 20260508042507 | 2 | 227 | 1.6 | 4.8 | 0.00 | 0.00 | 0.00 | 85 | 1009.7 |
| 20260508042006 | 2 | 190 | 1.6 | 4.8 | 0.00 | 0.00 | 0.00 | 85 | 1009.7 |
| 20260508041509 | 3 | 205 | 0.0 | 4.8 | 0.00 | 0.00 | 0.00 | 84 | 1009.7 |
| 20260508041004 | 3 | 205 | 1.6 | 4.8 | 0.00 | 0.00 | 0.00 | 84 | 1009.8 |
| 20260508040507 | 2 | 221 | 0.0 | 3.2 | 0.00 | 0.00 | 0.00 | 82 | 1009.7 |
| 20260508040013 | 3 | 265 | 1.6 | 3.2 | 0.00 | 0.00 | 0.00 | 83 | 1009.7 |
| 20260508035505 | 3 | 265 | 0.0 | 4.8 | 0.00 | 0.00 | 0.00 | 82 | 1009.7 |
| 20260508035003 | 3 | 265 | 1.6 | 4.8 | 0.00 | 0.00 | 0.00 | 82 | 1009.7 |
| 20260508034517 | 3 | 255 | 1.6 | 4.8 | 0.00 | 0.00 | 0.00 | 82 | 1009.7 |
| 20260508034004 | 3 | 238 | 1.6 | 4.8 | 0.00 | 0.00 | 0.00 | 81 | 1009.7 |
| 20260508033504 | 3 | 243 | 0.0 | 3.2 | 0.00 | 0.00 | 0.00 | 82 | 1009.7 |
| 20260508033018 | 3 | 238 | 0.0 | 3.2 | 0.00 | 0.00 | 0.00 | 82 | 1009.7 |
| 20260508032504 | 3 | 221 | 1.6 | 3.2 | 0.00 | 0.00 | 0.00 | 82 | 1009.7 |
| 20260508032006 | 3 | 221 | 1.6 | 3.2 | 0.00 | 0.00 | 0.00 | 81 | 1009.7 |
| 20260508031512 | 3 | 212 | 0.0 | 3.2 | 0.00 | 0.00 | 0.00 | 82 | 1009.7 |
| 20260508031002 | 4 | 205 | 0.0 | 3.2 | 0.00 | 0.00 | 0.00 | 81 | 1009.6 |
| 20260508030503 | 4 | 238 | 0.0 | 3.2 | 0.00 | 0.00 | 0.00 | 80 | 1009.6 |
| 20260508030014 | 4 | 205 | 1.6 | 4.8 | 0.00 | 0.00 | 0.00 | 79 | 1009.6 |
| 20260508025506 | 4 | 200 | 1.6 | 4.8 | 0.00 | 0.00 | 0.00 | 79 | 1009.5 |
| 20260508025003 | 4 | 212 | 0.0 | 4.8 | 0.00 | 0.00 | 0.00 | 79 | 1009.6 |
| 20260508024518 | 4 | 255 | 1.6 | 4.8 | 0.00 | 0.00 | 0.00 | 79 | 1009.6 |
| 20260508024003 | 4 | 275 | 1.6 | 4.8 | 0.00 | 0.00 | 0.00 | 78 | 1009.5 |
| 20260508023506 | 4 | 250 | 1.6 | 6.4 | 0.00 | 0.00 | 0.00 | 78 | 1009.5 |
| 20260508023027 | 5 | 9 | 0.0 | 9.7 | 0.00 | 0.00 | 0.00 | 77 | 1009.6 |
| 20260508022504 | 5 | 51 | 1.6 | 9.7 | 0.00 | 0.00 | 0.00 | 77 | 1009.5 |